Location: Proctor
(47.8934°N, 114.3048°W)
Time: 20:41:36
(UTC+00:00)

CAS-6 - Pass Details

Date: 29 June 2022
Orbit: 613 x 634 km, 97.9° (Epoch: 11 August)

Event Time Altitude Azimuth Distance (km) Brightness Sun altitude
Exits shadow 04:49:23 10° 120° (ESE) 1,983 ? -9.2°
Maximum altitude 04:52:56 26° 65° (ENE) 1,243 ? -9.5°
Drops below altitude 10° 04:56:33 10° 9° (N) 2,007 ? -9.9°
Sets 04:59:00 0° 357° (N) 2,914 ? -10.2°
